Regional Weather Roundup
Issued by NWS

Home | Current Version | Previous Version | Graphics & Text | Print | Product List | Glossary Off
Versions: 1 2 3 4 5 6 7 8 9 10 11 12 13 14 15 16 17 18 19 20 21 22 23 24 25 26 27 28 29 30 31 32 33 34 35 36 37 38 39 40 41 42 43 44 45 46 47 48 49 50

018
ASUS45 KBOU 300907
RWRCO

WEATHER ROUNDUP FOR COLORADO
NATIONAL WEATHER SERVICE DENVER/BOULDER CO
300 AM MDT SUN APR 30 2017

NOTE: "FAIR" INDICATES FEW OR NO CLOUDS BELOW 12000 FEET WITH NO
SIGNIFICANT WEATHER AND/OR OBSTRUCTIONS TO VISIBILITY.

COZ001>005-013-030-031-301000-
...NORTHWEST COLORADO...

CITY           SKY/WX    TMP DP  RH WIND       PRES   REMARKS
CRAIG          FAIR      22  17  81 SW3       30.17S
HAYDEN         FAIR      23  18  80 W5        30.15S WCI  17
MEEKER         FAIR      23  19  85 NE6       30.17S WCI  16
MOUNT WERNER   NOT AVBL
STEAMBOAT SPGS FAIR      24  17  74 CALM      30.14S
WALDEN           N/A     12   9  85 SE5       30.13S WCI   4
$$

COZ006>008-011-301000-
...WEST CENTRAL VALLEYS...

CITY           SKY/WX    TMP DP  RH WIND       PRES   REMARKS
GRAND JUNCTION FAIR      30  16  56 CALM      30.16S
MONTROSE       MOCLDY    34  23  64 E6        30.16S WCI  29
EAGLE          CLOUDY    29  23  78 SE6       30.16S WCI  23
RIFLE          FAIR      33  20  58 W5        30.15F WCI  29
DELTA          FAIR      40  19  42 W13       30.13F
NUCLA          FAIR      34  18  51 CALM      30.18S
$$

COZ017>023-064>068-301000-
...SOUTHWEST COLORADO...

CITY           SKY/WX    TMP DP  RH WIND       PRES   REMARKS
DURANGO        FAIR      23  20  88 E6        30.04S WCI  16
CORTEZ         FAIR      35  21  56 N7        30.10F WCI  29
PAGOSA SPRINGS FOG       29  29 100 CALM      30.04F VSB 1/4
TELLURIDE      FLURRIES  27  19  74 W6        30.11F WCI  20
WOLF CREEK PAS FAIR      12  10  92 NW6       30.07S WCI   3
$$

COZ009-010-012-014-032>034-037-058>063-301000-
...CENTRAL COLORADO...

CITY           SKY/WX    TMP DP  RH WIND       PRES   REMARKS
ASPEN          CLOUDY    28  21  75 W3        30.11S
BUENA VISTA    FAIR      28  16  62 NW16G24   30.03F WCI  15
COPPER MTN     LGT SNOW  14   9  79 MISG      30.05F VSB 1
BERTHOUD PASS  CLOUDY     5  -6  61 N22       30.02F WCI -16
COTTONWOOD PAS FAIR      25  14  63 W13G21    30.02F WCI  13
GUNNISON       FAIR      23  17  78 N5        30.09S WCI  17
KREMMLING      FAIR      27  21  80 CALM      30.15S
LEADVILLE      CLOUDY    17  12  80 NW5       30.06S WCI  10
MONARCH PASS     N/A     10   9  92 S3        30.12F
SALIDA         FAIR      23  17  79 W7        30.12F WCI  14
SUNLIGHT       FAIR      14  12  92 N6        30.15F WCI   5
WILKERSON PASS FAIR     N/A N/A N/A N14G22    30.01F
$$

COZ069>075-301000-
...SAN LUIS VALLEY/SANGRE DE CRISTO MOUNTAINS...

CITY           SKY/WX    TMP DP  RH WIND       PRES   REMARKS
ALAMOSA        FAIR      22  21  96 W6        29.99F WCI  14
LA VETA PASS   FAIR      18  14  86 W22G33    30.04F FOG     WCI   0
SAGUACHE       FAIR      30  12  47 N15       30.02S WCI  19
$$

COZ035-036-038>040-301000-
...NORTHERN COLORADO FRONT RANGE...

CITY           SKY/WX    TMP DP  RH WIND       PRES   REMARKS
DENVER INTL AP MOCLDY    29  20  69 NW13      30.06F WCI  19
DMNS CITY PARK   N/A     28  18  66 MISG      30.06F
AURORA         MOCLDY    25  20  82 NW9       30.06F WCI  16
FRONT RANGE AP FAIR      28  23  80 NW10      30.06F WCI  19
ERIE MUNI ARPT FAIR      28  23  80 CALM      30.09F
BOULDER MUN AP FAIR      32  19  59 W3        30.09F
CENTENNIAL     MOCLDY    26  19  74 W10       30.05F WCI  16
BROOMFIELD     FAIR      30  18  59 NW10      30.08F WCI  21
FORT COLLINS   FAIR      30  18  60 N6        30.10S WCI  24
LONGMONT       FAIR      32  20  61 W5        30.11F WCI  27
$$

COZ041-046-047-076>085-087-088-301000-
...PIKES PEAK/PALMER DIVIDE AND SOUTHERN FOOTHILLS...

CITY           SKY/WX    TMP DP  RH WIND       PRES   REMARKS
COLO. SPRINGS  MOCLDY    30   9  41 NW24G36   29.97F WCI  16
A. F. ACADEMY  FAIR      26   9  48 NW23G29   29.97F WCI  12
SCHRIEVER AFB  FAIR      28  14  56 NW23G33   29.97F WCI  14
ELLICOTT       MOCLDY   N/A N/A N/A N26       29.92F
FALCON         FAIR      26  12  55 N18G29    29.96F WCI  13
FORT CARSON    FAIR      31  13  46 NW26G38   29.96F WCI  17
LIMON          CLOUDY    29  23  78 N25G35    29.97F WCI  14
MONUMENT HILL  FAIR      23  14  68 NW22G28   30.01F WCI   8
TRINIDAD       CLOUDY    29  23  78 N21G30    29.96F WCI  16
$$

COZ042>045-048>051-090-091-301000-
...NORTHEAST COLORADO...

CITY           SKY/WX    TMP DP  RH WIND       PRES   REMARKS
GREELEY ARPT   FAIR      31  23  72 NW13      30.09F WCI  21
AKRON          FAIR      32  23  69 N17       30.00R WCI  21
BURLINGTON     NOT AVBL
WRAY           NOT AVBL
STERLING       FAIR      34  28  80 N12       30.03R WCI  25
HOLYOKE        CLOUDY    37  27  65 N17       29.97F
FORT MORGAN    FAIR      32  22  66 NW16      30.05F WCI  22
$$

COZ086-089-092>099-301000-
...SOUTHEAST COLORADO...

CITY           SKY/WX    TMP DP  RH WIND       PRES   REMARKS
PUEBLO         CLOUDY    34  25  69 NW9       29.99F WCI  27
LA JUNTA       CLOUDY    36  26  67 NW25G33   29.94F
LAMAR          LGT SNOW  35  28  75 N29G46    29.87F WCI  22
SPRINGFIELD      N/A     30  30 100 N32G40    29.84S WCI  14
$$




USA.gov is the U.S. government's official web portal to all federal, state and local government web resources and services.